Location: Albany
(35.0000°S, 118.0000°E)
Time: 17:42:26
(UTC-04:00)

Amateur Radio Satellites - All Passes

Search period start: 29 July 2016 17:12
Search period end: 30 July 2016 17:12
Location: Albany, 35.0000°S, 118.0000°E

Satellite Date Start Highest point End Downlink Frequencies (MHz)
Time Altitude Azimuth
PHONESAT 2.4 29 Jul 17:15:11 17:17:56 28° 185° (S) 17:20:40 2401.200-2431.200
STARS 29 Jul 17:16:38 17:20:27 29° 250° (WSW) 17:24:13 437.465
PCSat 29 Jul 17:18:34 17:23:11 30° 72° (ENE) 17:27:51 145.827
LilacSat-2 29 Jul 17:19:36 17:23:12 41° 106° (ESE) 17:26:50 437.200
NOAA 18 29 Jul 17:25:00 17:30:23 59° 108° (ESE) 17:35:49 137.9125
CUBESAT XI-V 29 Jul 17:27:21 17:32:09 88° 75° (ENE) 17:36:51 437.345
DOVE 4 29 Jul 17:27:38 17:31:30 22° 111° (ESE) 17:35:16 437.250
HO-68 29 Jul 17:29:28 17:31:55 12° 125° (SE) 17:34:22 435.675
BEESAT 3 29 Jul 17:33:38 17:37:25 47° 238° (WSW) 17:41:16 437.485
Cubesat XI-IV 29 Jul 17:43:45 17:49:06 88° 107° (ESE) 17:54:31 437.490
BEESAT 2 29 Jul 17:44:53 17:48:51 71° 241° (WSW) 17:52:51 435.950
GOMX 1 29 Jul 17:46:04 17:51:34 76° 104° (ESE) 17:56:57 467.674
CUTE-I 29 Jul 18:06:44 18:11:56 55° 281° (W) 18:17:13 437.470
ISS 29 Jul 18:07:08 18:07:48 10° 54° (NE) 18:08:30 145.825
YUBILEINY 29 Jul 18:18:10 18:21:03 12° 117° (ESE) 18:23:55 435.215
NOAA 15 29 Jul 18:18:47 18:23:27 31° 277° (W) 18:28:12 137.62
STRAND 1 29 Jul 18:24:09 18:27:47 19° 86° (E) 18:31:22 437.568
AIST 2 29 Jul 18:32:30 18:34:33 13° 72° (ENE) 18:36:36 435.215
BRITE-PL 29 Jul 18:37:25 18:41:14 18° 272° (W) 18:45:05 437.365/2234.400
SEEDS 29 Jul 18:40:13 18:42:54 17° 112° (ESE) 18:45:36 437.485
COMPASS 1 29 Jul 18:47:33 18:49:39 14° 113° (ESE) 18:51:46 437.405
O/OREOS (USA 219) 29 Jul 18:47:37 18:51:37 29° 77° (ENE) 18:55:39 437.305
PHONESAT 2.4 29 Jul 18:51:59 18:54:51 36° 168° (SSE) 18:57:44 2401.200-2431.200
CINEMA 3 29 Jul 18:55:59 19:00:28 48° 106° (ESE) 19:04:47 145.822/145.860
LilacSat-2 29 Jul 18:57:06 18:57:41 10° 272° (W) 18:58:16 437.200
PCSat 29 Jul 19:01:37 19:06:27 32° 236° (WSW) 19:11:20 145.827
DOVE 4 29 Jul 19:04:06 19:08:55 38° 278° (W) 19:13:35 437.250
NOAA 18 29 Jul 19:08:18 19:11:22 15° 273° (W) 19:14:28 137.9125
HO-68 29 Jul 19:11:14 19:18:22 74° 108° (ESE) 19:25:34 435.675
AAUSAT CUBESAT 2 29 Jul 19:11:59 19:15:06 21° 111° (ESE) 19:18:15 437.432
UWE-3 29 Jul 19:18:47 19:21:04 14° 112° (ESE) 19:23:20 435.000/436.395/437.385
CANX-2 29 Jul 19:27:00 19:31:14 79° 282° (WNW) 19:35:34 2200.000
GOMX 1 29 Jul 19:28:09 19:30:00 12° 271° (W) 19:31:51 467.674
Cosmos 2491 29 Jul 19:35:53 19:42:37 25° 98° (E) 19:49:22 435.465 / 435.565
CUTE 1.7 + AOD 2 29 Jul 19:39:56 19:44:08 64° 280° (W) 19:48:25 437.475
ISS 29 Jul 19:40:33 19:43:50 58° 220° (SW) 19:47:07 145.825
CUBEBUG 2 29 Jul 19:44:44 19:48:51 44° 106° (ESE) 19:52:56 437.445
Oscar 11 29 Jul 19:48:05 19:51:22 22° 111° (ESE) 19:54:42 145.826/435.025
STRAND 1 29 Jul 20:02:09 20:07:05 44° 252° (WSW) 20:11:59 437.568
AIST 2 29 Jul 20:08:36 20:12:36 45° 237° (WSW) 20:16:39 435.215
Cosmos 2504 29 Jul 20:09:45 20:15:58 23° 108° (ESE) 20:22:25 435.465 / 435.565
YUBILEINY 29 Jul 20:10:36 20:19:24 74° 98° (E) 20:28:08 435.215
SEEDS 29 Jul 20:14:25 20:18:16 35° 277° (W) 20:22:12 437.485
COMPASS 1 29 Jul 20:20:48 20:24:46 42° 279° (W) 20:28:50 437.405
M-CUBED/EXP-1 PRIME 29 Jul 20:22:20 20:25:24 20° 114° (ESE) 20:28:19 437.505
O/OREOS (USA 219) 29 Jul 20:27:17 20:30:59 23° 242° (WSW) 20:34:43 437.305
PHONESAT 2.4 29 Jul 20:28:25 20:31:26 54° 333° (NNW) 20:34:26 2401.200-2431.200
CINEMA 3 29 Jul 20:35:28 20:37:45 13° 273° (W) 20:40:00 145.822/145.860
AO-85 29 Jul 20:39:09 20:42:37 19° 130° (SE) 20:46:15 145.980
FUNcube-1 29 Jul 20:44:26 20:48:38 89° 106° (ESE) 20:52:52 145.935
PRISM 29 Jul 20:44:55 20:49:09 76° 77° (ENE) 20:53:17 437.425
AUBIESAT-1 29 Jul 20:45:20 20:48:55 29° 112° (ESE) 20:52:19 437.475
DELFI C3 29 Jul 20:45:36 20:49:21 39° 106° (ESE) 20:53:10 145.870
AAUSAT CUBESAT 2 29 Jul 20:46:50 20:50:23 27° 276° (W) 20:53:59 437.432
ZACube-1 29 Jul 20:46:58 20:51:11 79° 283° (WNW) 20:55:25 437.345
UWE-3 29 Jul 20:53:09 20:57:10 40° 279° (W) 21:01:10 435.000/436.395/437.385
HO-68 29 Jul 21:02:12 21:06:38 17° 273° (W) 21:11:05 435.675
ISS 29 Jul 21:20:27 21:20:51 10° 203° (SSW) 21:21:16 145.825
Oscar 11 29 Jul 21:23:37 21:27:19 27° 276° (W) 21:31:04 145.826/435.025
CUBEBUG 2 29 Jul 21:23:49 21:25:39 12° 273° (W) 21:27:30 437.445
Cosmos 2491 29 Jul 21:29:58 21:38:41 61° 260° (W) 21:47:31 435.465 / 435.565
HUMSAT D 29 Jul 21:36:40 21:40:45 78° 103° (ESE) 21:44:54 437.325/437.525
ANTELSAT 29 Jul 21:44:57 21:48:43 26° 83° (E) 21:52:29 437.575/2403.000
M-CUBED/EXP-1 PRIME 29 Jul 21:56:04 21:59:45 28° 283° (WNW) 22:03:15 437.505
Cosmos 2504 29 Jul 22:01:45 22:09:46 64° 273° (W) 22:18:14 435.465 / 435.565
DX 1 29 Jul 22:06:15 22:06:53 10° 116° (ESE) 22:07:33 434.975-435.025
YUBILEINY 29 Jul 22:09:27 22:15:09 20° 260° (W) 22:20:53 435.215
AISAT 29 Jul 22:13:53 22:17:08 20° 112° (ESE) 22:20:22 437.250
AO-85 29 Jul 22:18:27 22:23:22 57° 296° (WNW) 22:28:34 145.980
AUBIESAT-1 29 Jul 22:20:27 22:23:20 18° 281° (W) 22:26:07 437.475
DELFI C3 29 Jul 22:22:38 22:24:22 12° 272° (W) 22:26:06 145.870
TIGRISAT 29 Jul 22:25:14 22:29:41 75° 78° (ENE) 22:34:10 435.000
QB50P2 29 Jul 22:34:24 22:36:29 13° 87° (E) 22:38:33 145.880/145.840
POLYITAN 1 29 Jul 22:36:57 22:39:07 14° 87° (E) 22:41:16 437.675
SPROUT 29 Jul 22:39:58 22:42:32 16° 113° (ESE) 22:45:07 437.525
UNISAT 6 29 Jul 22:42:39 22:47:04 64° 256° (WSW) 22:51:30 437.425
50 SAT 29 Jul 22:55:19 22:58:53 54° 104° (ESE) 23:02:32 437.505
CUBEBUG 1 29 Jul 22:57:08 23:01:33 67° 104° (ESE) 23:06:02 437.445
JAS-2 29 Jul 22:58:47 23:02:34 14° 93° (E) 23:06:10 435.910
ESTCUBE 1 29 Jul 22:59:14 23:03:45 75° 282° (WNW) 23:08:23 437.505/2401.250
VELOX 1 29 Jul 23:03:34 23:08:02 68° 105° (ESE) 23:12:33 145.980
JUGNU 29 Jul 23:05:52 23:07:23 11° 14° (NNE) 23:08:53 437.505
NANOSAT C BR1 29 Jul 23:15:48 23:19:46 37° 82° (E) 23:23:42 145.865
DUCHIFAT 1 29 Jul 23:18:38 23:22:36 37° 82° (E) 23:26:31 145.980
ANTELSAT 29 Jul 23:21:43 23:25:17 24° 250° (WSW) 23:28:51 437.575/2403.000
BUGSAT 1 29 Jul 23:22:14 23:24:47 16° 86° (E) 23:27:18 437.445
TISAT 1 29 Jul 23:26:06 23:27:23 11° 115° (ESE) 23:28:40 437.305
DX 1 29 Jul 23:38:05 23:42:27 65° 282° (WNW) 23:46:54 434.975-435.025
QB50P1 29 Jul 23:39:44 23:44:02 81° 76° (ENE) 23:48:15 145.935-145.965
UKube-1 29 Jul 23:46:09 23:50:29 67° 281° (W) 23:54:53 .
POPSAT HIP 1 29 Jul 23:46:29 23:50:47 85° 259° (W) 23:55:00 437.405
AISAT 29 Jul 23:49:16 23:53:20 33° 278° (W) 23:57:26 437.250
AIST 1 30 Jul 00:01:04 00:05:25 65° 275° (W) 00:09:39
QB50P2 30 Jul 00:08:25 00:12:27 41° 253° (WSW) 00:16:27 145.880/145.840
POLYITAN 1 30 Jul 00:11:03 00:15:04 41° 253° (WSW) 00:19:03 437.675
SPROUT 30 Jul 00:14:05 00:18:07 39° 278° (W) 00:22:12 437.525
GONETS M04 30 Jul 00:20:46 00:26:40 19° 112° (ESE) 00:32:29
JAS-2 30 Jul 00:40:46 00:48:32 87° 253° (WSW) 00:55:28 435.910
SWISSCUBE 30 Jul 00:48:23 00:52:01 22° 112° (ESE) 00:55:41 437.505
JUGNU 30 Jul 00:51:56 00:55:37 17° 5° (N) 00:59:19 437.505
NANOSAT C BR1 30 Jul 00:52:39 00:55:09 15° 247° (WSW) 00:57:39 145.865
Cosmos 2499 30 Jul 00:52:52 00:59:09 23° 109° (ESE) 01:05:36 435.465 / 435.565
DUCHIFAT 1 30 Jul 00:55:27 00:57:55 15° 247° (WSW) 01:00:24 145.980
BUGSAT 1 30 Jul 00:56:35 01:00:12 31° 252° (WSW) 01:03:47 437.445
TISAT 1 30 Jul 00:58:21 01:02:30 54° 280° (W) 01:06:42 437.305
Oscar 19 30 Jul 01:05:15 01:10:08 40° 82° (E) 01:14:57 437.125/150
BEESAT 30 Jul 01:08:43 01:12:56 32° 110° (ESE) 01:17:12 436.000
Gurwin Techsat 1B 30 Jul 01:10:57 01:14:46 19° 86° (E) 01:18:32 435.225
SRMSAT 30 Jul 01:27:42 01:29:46 12° 14° (NNE) 01:31:50 437.500
ITUPSAT 1 30 Jul 01:33:18 01:37:59 58° 106° (ESE) 01:42:45 437.325
BEESAT 3 30 Jul 01:53:55 01:57:28 31° 124° (SE) 02:00:59 437.485
KKS-1 30 Jul 02:05:18 02:07:23 13° 115° (ESE) 02:09:28 437.445
BEESAT 2 30 Jul 02:06:25 02:09:38 23° 127° (SE) 02:12:50 435.950
PCSat 30 Jul 02:10:35 02:13:24 14° 132° (SE) 02:16:12 145.827
ISS 30 Jul 02:10:57 02:14:01 34° 144° (SE) 02:17:04 145.825
GONETS M04 30 Jul 02:15:35 02:24:24 78° 274° (W) 02:33:03
CUSAT 1 30 Jul 02:24:48 02:30:51 61° 88° (E) 02:38:21 437.405
SWISSCUBE 30 Jul 02:25:15 02:29:33 33° 278° (W) 02:33:56 437.505
JAS-2 30 Jul 02:28:02 02:32:15 16° 237° (WSW) 02:36:19 435.910
STARS 30 Jul 02:35:27 02:37:37 13° 115° (ESE) 02:39:47 437.465
JUGNU 30 Jul 02:40:15 02:43:54 17° 354° (N) 02:47:33 437.505
Cosmos 2499 30 Jul 02:44:31 02:52:45 68° 273° (W) 03:01:26 435.465 / 435.565
Oscar 19 30 Jul 02:45:16 02:49:09 21° 247° (WSW) 02:52:59 437.125/150
ITAMSAT 1 30 Jul 02:46:00 02:51:10 52° 80° (E) 02:56:16 435.822/435.867
BEESAT 30 Jul 02:46:59 02:50:42 22° 275° (W) 02:54:28 436.000
Gurwin Techsat 1B 30 Jul 02:49:45 02:54:52 45° 252° (WSW) 02:59:55 435.225
AO-7 30 Jul 02:52:01 02:59:04 29° 83° (E) 03:06:04 29.400- 29.500
MOZHAYETS 4 30 Jul 02:59:13 03:03:41 56° 105° (ESE) 03:08:15
ITUPSAT 1 30 Jul 03:14:17 03:16:09 12° 272° (W) 03:18:02 437.325
SRMSAT 30 Jul 03:14:18 03:18:11 18° 4° (N) 03:22:05 437.500
DANDE 30 Jul 03:16:21 03:21:28 66° 87° (E) 03:28:20 436.750
BEESAT 3 30 Jul 03:32:19 03:34:51 17° 290° (WNW) 03:37:23 437.485
KKS-1 30 Jul 03:39:04 03:43:26 52° 281° (W) 03:47:53 437.445
BEESAT 2 30 Jul 03:44:08 03:47:22 24° 292° (WNW) 03:50:35 435.950
ISS 30 Jul 03:47:52 03:50:16 19° 309° (NW) 03:52:39 145.825
PCSat 30 Jul 03:51:58 03:57:27 82° 294° (WNW) 04:02:52 145.827
CUSAT 1 30 Jul 04:08:35 04:13:36 23° 246° (WSW) 04:19:20 437.405
STARS 30 Jul 04:09:13 04:13:30 49° 280° (W) 04:17:50 437.465
GONETS M04 30 Jul 04:17:06 04:19:36 11° 256° (WSW) 04:22:08
ITAMSAT 1 30 Jul 04:26:48 04:30:09 17° 245° (WSW) 04:33:30 435.822/435.867
CUBESAT XI-V 30 Jul 04:26:56 04:31:33 58° 105° (ESE) 04:36:15 437.345
JUGNU 30 Jul 04:31:08 04:32:09 10° 345° (NNW) 04:33:09 437.505
AIST 2 30 Jul 04:32:56 04:36:51 40° 123° (ESE) 04:40:44 435.215
MOZHAYETS 4 30 Jul 04:39:40 04:41:10 11° 271° (W) 04:42:40
RS-15 30 Jul 04:40:22 04:50:55 40° 73° (ENE) 05:01:01 29.354- 29.394
AO-7 30 Jul 04:43:58 04:52:03 55° 247° (WSW) 05:00:07 29.400- 29.500
HORYU 2 30 Jul 04:57:08 05:01:37 63° 78° (ENE) 05:06:03 437.375
NOAA 15 30 Jul 04:59:14 05:01:45 13° 88° (E) 05:04:16 137.62
O/OREOS (USA 219) 30 Jul 05:00:37 05:04:47 33° 116° (ESE) 05:08:52 437.305
DANDE 30 Jul 05:01:44 05:05:18 16° 242° (WSW) 05:09:25 436.750
SRMSAT 30 Jul 05:02:52 05:06:39 17° 354° (N) 05:10:26 437.500
BRITE-PL 30 Jul 05:07:08 05:10:40 20° 88° (E) 05:14:00 437.365/2234.400
STRAND 1 30 Jul 05:37:04 05:40:43 20° 114° (ESE) 05:44:24 437.568
NOAA 18 30 Jul 05:50:43 05:55:41 33° 82° (E) 06:00:36 137.9125
GOMX 1 30 Jul 05:52:46 05:56:27 25° 85° (E) 05:59:57 467.674
Cubesat XI-IV 30 Jul 06:04:30 06:09:44 47° 80° (E) 06:14:54 437.490
CUBESAT XI-V 30 Jul 06:07:36 06:09:16 12° 271° (W) 06:10:57 437.345
AIST 2 30 Jul 06:12:40 06:14:57 14° 289° (WNW) 06:17:13 435.215
CUTE-I 30 Jul 06:26:57 06:32:24 79° 78° (ENE) 06:37:48 437.470
LilacSat-2 30 Jul 06:30:01 06:33:55 77° 257° (WSW) 06:37:46 437.200
HORYU 2 30 Jul 06:36:23 06:37:35 11° 244° (WSW) 06:38:46 437.375
NOAA 15 30 Jul 06:36:36 06:41:54 63° 254° (WSW) 06:47:07 137.62
O/OREOS (USA 219) 30 Jul 06:40:40 06:43:54 19° 280° (W) 06:47:06 437.305
BRITE-PL 30 Jul 06:44:54 06:49:15 32° 250° (WSW) 06:53:15 437.365/2234.400
HO-68 30 Jul 06:44:55 06:48:57 16° 88° (E) 06:52:57 435.675
RS-15 30 Jul 06:51:30 07:02:54 55° 234° (SW) 07:13:52 29.354- 29.394
SRMSAT 30 Jul 06:54:03 06:55:05 10° 344° (NNW) 06:56:06 437.500
SO-50 30 Jul 06:55:21 06:59:42 64° 239° (WSW) 07:04:09 436.795
CINEMA 3 30 Jul 06:55:35 06:57:33 13° 87° (E) 06:59:30 145.822/145.860
DOVE 4 30 Jul 07:06:24 07:10:41 78° 78° (ENE) 07:14:51 437.250
STRAND 1 30 Jul 07:14:42 07:19:32 42° 279° (W) 07:24:26 437.568
YUBILEINY 30 Jul 07:15:32 07:20:04 15° 101° (ESE) 07:24:37 435.215
CANX-2 30 Jul 07:15:57 07:19:26 23° 85° (E) 07:22:51 2200.000
CUTE 1.7 + AOD 2 30 Jul 07:28:30 07:32:14 27° 84° (E) 07:35:56 437.475
GOMX 1 30 Jul 07:30:54 07:34:24 23° 249° (WSW) 07:37:45 467.674
PRISM 30 Jul 07:31:01 07:34:48 34° 108° (ESE) 07:38:38 437.425
NOAA 18 30 Jul 07:31:29 07:36:10 29° 247° (WSW) 07:40:48 137.9125
CUBEBUG 2 30 Jul 07:40:34 07:42:12 12° 87° (E) 07:43:49 437.445
Cosmos 2491 30 Jul 07:44:31 07:53:16 59° 100° (E) 08:01:51 435.465 / 435.565
Cubesat XI-IV 30 Jul 07:45:34 07:49:24 20° 246° (WSW) 07:53:13 437.490
SEEDS 30 Jul 08:01:11 08:05:22 47° 81° (E) 08:09:30 437.485
COMPASS 1 30 Jul 08:06:50 08:10:50 37° 82° (E) 08:14:45 437.405
CUTE-I 30 Jul 08:09:41 08:11:42 12° 242° (WSW) 08:13:43 437.470
HO-68 30 Jul 08:30:03 08:37:17 79° 253° (WSW) 08:44:28 435.675
CINEMA 3 30 Jul 08:30:52 08:34:51 41° 254° (WSW) 08:38:51 145.822/145.860
AAUSAT CUBESAT 2 30 Jul 08:31:37 08:35:50 58° 80° (E) 08:39:59 437.432
FUNcube-1 30 Jul 08:36:08 08:39:30 22° 85° (E) 08:42:54 145.935
ZACube-1 30 Jul 08:38:47 08:42:24 25° 84° (E) 08:46:01 437.345
ANTELSAT 30 Jul 08:41:46 08:44:22 16° 112° (ESE) 08:46:58 437.575/2403.000
UWE-3 30 Jul 08:45:26 08:49:39 47° 80° (E) 08:53:54 435.000/436.395/437.385
Cosmos 2504 30 Jul 08:46:54 08:51:14 17° 98° (E) 08:55:34 435.465 / 435.565
CANX-2 30 Jul 08:51:34 08:55:11 26° 251° (WSW) 08:58:46 2200.000
CUTE 1.7 + AOD 2 30 Jul 09:04:34 09:07:53 22° 250° (WSW) 09:11:11 437.475
YUBILEINY 30 Jul 09:06:48 09:15:35 88° 264° (W) 09:24:24 435.215
PRISM 30 Jul 09:07:29 09:10:09 16° 274° (W) 09:12:51 437.425
RS-15 30 Jul 09:11:51 09:18:33 17° 206° (SSW) 09:25:09 29.354- 29.394
Oscar 11 30 Jul 09:13:16 09:17:42 68° 79° (E) 09:22:03 145.826/435.025
CUBEBUG 2 30 Jul 09:14:51 09:19:01 48° 255° (WSW) 09:23:14 437.445
TIGRISAT 30 Jul 09:20:44 09:24:49 41° 107° (ESE) 09:28:54 435.000
HUMSAT D 30 Jul 09:24:23 09:27:07 16° 86° (E) 09:29:50 437.325/437.525
UNISAT 6 30 Jul 09:38:00 09:42:19 73° 103° (ESE) 09:46:40 437.425
SEEDS 30 Jul 09:38:36 09:40:36 13° 246° (WSW) 09:42:35 437.485
M-CUBED/EXP-1 PRIME 30 Jul 09:38:38 09:41:01 18° 79° (E) 09:43:25 437.505
Cosmos 2491 30 Jul 09:42:33 09:49:23 26° 263° (W) 09:56:09 435.465 / 435.565
COMPASS 1 30 Jul 09:43:25 09:46:02 16° 248° (WSW) 09:48:38 437.405
DELFI C3 30 Jul 10:00:50 10:04:56 76° 257° (WSW) 10:08:59 145.870
AUBIESAT-1 30 Jul 10:01:09 10:04:09 30° 77° (ENE) 10:07:11 437.475
NANOSAT C BR1 30 Jul 10:05:25 10:08:25 19° 111° (ESE) 10:11:26 145.865
DUCHIFAT 1 30 Jul 10:07:59 10:10:59 19° 111° (ESE) 10:13:59 145.980
AAUSAT CUBESAT 2 30 Jul 10:10:02 10:10:45 10° 245° (WSW) 10:11:27 437.432
FUNcube-1 30 Jul 10:11:59 10:15:41 27° 251° (WSW) 10:19:24 145.935
ZACube-1 30 Jul 10:15:03 10:18:33 24° 251° (WSW) 10:22:05 437.345
ANTELSAT 30 Jul 10:16:42 10:20:45 38° 278° (W) 10:24:47 437.575/2403.000
HO-68 30 Jul 10:20:46 10:23:50 13° 236° (SW) 10:26:54 435.675
UWE-3 30 Jul 10:23:40 10:25:41 13° 247° (WSW) 10:27:42 435.000/436.395/437.385
QB50P1 30 Jul 10:28:49 10:32:45 38° 107° (ESE) 10:36:43 145.935-145.965
POPSAT HIP 1 30 Jul 10:35:29 10:39:32 44° 106° (ESE) 10:43:37 437.405
Cosmos 2504 30 Jul 10:36:35 10:43:44 66° 261° (W) 10:51:00 435.465 / 435.565
JAS-2 30 Jul 10:48:24 10:54:29 33° 115° (ESE) 11:01:06 435.910
CUBEBUG 1 30 Jul 10:50:28 10:53:08 16° 87° (E) 10:55:47 437.445
ESTCUBE 1 30 Jul 10:55:27 10:59:29 29° 83° (E) 11:03:26 437.505/2401.250
QB50P2 30 Jul 10:57:05 11:01:20 89° 302° (WNW) 11:05:39 145.880/145.840
VELOX 1 30 Jul 10:58:17 11:01:08 17° 86° (E) 11:03:57 145.980
HUMSAT D 30 Jul 10:58:53 11:02:48 35° 253° (WSW) 11:06:42 437.325/437.525
TIGRISAT 30 Jul 10:59:28 11:01:40 14° 273° (W) 11:03:52 435.000
POLYITAN 1 30 Jul 10:59:44 11:03:59 87° 279° (W) 11:08:17 437.675
YUBILEINY 30 Jul 11:08:55 11:13:35 15° 245° (WSW) 11:18:17 435.215
M-CUBED/EXP-1 PRIME 30 Jul 11:13:11 11:15:30 18° 246° (WSW) 11:17:49 437.505
DX 1 30 Jul 11:30:02 11:33:47 27° 83° (E) 11:37:29 434.975-435.025
RS-15 30 Jul 11:33:45 11:37:57 12° 167° (SSE) 11:42:07 29.354- 29.394
UKube-1 30 Jul 11:37:05 11:40:43 25° 83° (E) 11:44:17 .
AUBIESAT-1 30 Jul 11:37:06 11:38:23 12° 244° (WSW) 11:39:40 437.475
NANOSAT C BR1 30 Jul 11:40:11 11:43:55 30° 277° (W) 11:47:41 145.865
BUGSAT 1 30 Jul 11:42:06 11:46:18 75° 281° (W) 11:50:30 437.445
AISAT 30 Jul 11:42:15 11:46:40 58° 79° (E) 11:51:00 437.250
DUCHIFAT 1 30 Jul 11:42:43 11:46:26 30° 277° (W) 11:50:12 145.980
50 SAT 30 Jul 12:00:29 12:04:16 71° 258° (WSW) 12:07:59 437.505
SPROUT 30 Jul 12:03:05 12:07:12 43° 81° (E) 12:11:16 437.525
QB50P1 30 Jul 12:06:13 12:08:39 15° 273° (W) 12:11:04 145.935-145.965
POPSAT HIP 1 30 Jul 12:13:42 12:15:31 12° 273° (W) 12:17:20 437.405
Oscar 19 30 Jul 12:18:40 12:23:33 42° 109° (ESE) 12:28:30 437.125/150
CUBEBUG 1 30 Jul 12:25:28 12:29:32 37° 252° (WSW) 12:33:33 437.445
AIST 1 30 Jul 12:26:17 12:30:43 86° 85° (E) 12:35:12
Gurwin Techsat 1B 30 Jul 12:28:48 12:32:56 23° 113° (ESE) 12:37:07 435.225
AO-85 30 Jul 12:30:26 12:34:17 70° 239° (WSW) 12:38:21 145.980
ESTCUBE 1 30 Jul 12:32:30 12:36:05 23° 249° (WSW) 12:39:37 437.505/2401.250
JAS-2 30 Jul 12:32:36 12:39:07 46° 277° (W) 12:46:24 435.910
VELOX 1 30 Jul 12:33:35 12:37:42 37° 252° (WSW) 12:41:45 145.980
TISAT 1 30 Jul 12:45:50 12:49:30 28° 83° (E) 12:53:07 437.305
CUSAT 1 30 Jul 13:04:14 13:11:08 38° 108° (ESE) 13:16:47 437.405
DX 1 30 Jul 13:06:22 13:09:48 22° 249° (WSW) 13:13:11 434.975-435.025
UKube-1 30 Jul 13:13:07 13:16:37 24° 249° (WSW) 13:20:04 .
BEESAT 30 Jul 13:15:16 13:15:44 10° 89° (E) 13:16:13 436.000
GONETS M04 30 Jul 13:17:51 13:24:35 25° 97° (E) 13:31:19
AISAT 30 Jul 13:21:10 13:22:35 11° 244° (WSW) 13:23:58 437.250
Cosmos 2499 30 Jul 13:28:48 13:32:32 15° 100° (E) 13:36:19 435.465 / 435.565
ITUPSAT 1 30 Jul 13:38:02 13:41:33 20° 85° (E) 13:45:02 437.325
SPROUT 30 Jul 13:40:29 13:42:44 14° 247° (WSW) 13:44:57 437.525
RS-15 30 Jul 13:45:19 13:55:07 36° 134° (SE) 14:04:53 29.354- 29.394
AO-7 30 Jul 13:47:45 13:54:46 32° 119° (ESE) 14:01:47 29.400- 29.500
DANDE 30 Jul 13:58:27 14:06:40 52° 104° (ESE) 14:13:48 436.750
Oscar 19 30 Jul 13:59:13 14:03:00 20° 274° (W) 14:06:48 437.125/150
ITAMSAT 1 30 Jul 14:00:35 14:05:40 57° 107° (ESE) 14:10:49 435.822/435.867
Gurwin Techsat 1B 30 Jul 14:07:40 14:12:36 38° 278° (W) 14:17:37 435.225
TISAT 1 30 Jul 14:21:51 14:24:56 20° 249° (WSW) 14:28:00 437.305
SWISSCUBE 30 Jul 14:28:05 14:32:59 80° 75° (ENE) 14:37:49 437.505
PHONESAT 2.4 30 Jul 14:32:25 14:35:26 58° 27° (NNE) 14:38:28 2401.200-2431.200
CUSAT 1 30 Jul 14:46:34 14:52:57 32° 266° (W) 14:58:14 437.405
BEESAT 30 Jul 14:49:05 14:53:55 68° 255° (WSW) 14:58:42 436.000
MOZHAYETS 4 30 Jul 14:58:34 15:01:43 18° 86° (E) 15:04:50
GONETS M04 30 Jul 15:11:54 15:20:39 62° 260° (W) 15:29:28
ITUPSAT 1 30 Jul 15:14:58 15:19:27 37° 251° (WSW) 15:23:53 437.325
Cosmos 2499 30 Jul 15:17:34 15:24:37 73° 262° (W) 15:31:57 435.465 / 435.565
SO-50 30 Jul 15:29:25 15:33:57 44° 123° (ESE) 15:38:32 436.795
KKS-1 30 Jul 15:33:23 15:37:33 37° 81° (E) 15:41:39 437.445
AO-7 30 Jul 15:39:02 15:47:05 54° 283° (WNW) 15:55:13 29.400- 29.500
DANDE 30 Jul 15:42:00 15:48:58 31° 265° (W) 15:55:12 436.750
ITAMSAT 1 30 Jul 15:42:44 15:45:27 14° 272° (W) 15:48:12 435.822/435.867
BEESAT 3 30 Jul 15:43:34 15:44:59 12° 72° (ENE) 15:46:25 437.485
HORYU 2 30 Jul 15:51:53 15:55:59 38° 108° (ESE) 16:00:08 437.375
RS-15 30 Jul 15:57:21 16:08:00 63° 292° (WNW) 16:18:49 29.354- 29.394
STARS 30 Jul 16:01:54 16:06:02 37° 81° (E) 16:10:05 437.465
PHONESAT 2.4 30 Jul 16:09:11 16:12:02 35° 192° (SSW) 16:14:55 2401.200-2431.200
CUTE-I 30 Jul 16:10:45 16:11:33 10° 119° (ESE) 16:12:21 437.470
BRITE-PL 30 Jul 16:13:29 16:17:46 22° 113° (ESE) 16:22:02 437.365/2234.400
NOAA 15 30 Jul 16:15:50 16:19:13 17° 116° (ESE) 16:22:35 137.62
CUBESAT XI-V 30 Jul 16:27:51 16:31:14 19° 86° (E) 16:34:33 437.345
MOZHAYETS 4 30 Jul 16:34:37 16:38:59 38° 252° (WSW) 16:43:18
PCSat 30 Jul 16:48:34 16:52:30 21° 74° (ENE) 16:56:28 145.827
GOMX 1 30 Jul 16:56:38 17:01:01 25° 111° (ESE) 17:05:18 467.674
